Weather History for KDSM - October, 2011

Change the Weather History Date:

Thursday, October 6, 2011

  Actual Average Record
Temperature  
Mean Temperature 68 °F 57 °F  
Max Temperature 82 °F 67 °F 94 °F (1963)
Min Temperature 54 °F 46 °F 24 °F (1952)
Degree Days  
Heating Degree Days 0 9  
Month to date heating degree days 19 49  
Since 1 July heating degree days 135 149  
Cooling Degree Days 3 1  
Month to date cooling degree days 12 6  
Year to date cooling degree days 1327 1058  
Growing Degree Days 18 (Base 50)    
Moisture  
Dew Point 45 °F    
Average Humidity 46    
Maximum Humidity 66    
Minimum Humidity 25    
Precipitation  
Precipitation 0.00 in 0.08 in 1.24 in (1922)
Month to date precipitation 0.00 0.53  
Year to date precipitation 30.65 30.30  
Snow  
Snow 0.00 in 0.00 in - ()
Month to date snowfall 0.0 0.0  
Since 1 July snowfall 0.0 0.0  
Since 1 September snowfall 0.0 0.0  
Snow Depth 0.00 in    
Sea Level Pressure  
Sea Level Pressure 30.05 in    
Wind  
Wind Speed 13 mph (SSE)    
Max Wind Speed 24 mph    
Max Gust Speed 30 mph    
Visibility 10 miles    
Events      
T = Trace of Precipitation, MM = Missing Value Source: NWS Daily Summary

Daily Weather History Graph

Daily Weather History Graph

Search for Another Location

Airport or City:

Trip Planner

Search our weather history database for the weather conditions in past years. The results will help you decide how hot, cold, wet, or windy it might be!

Date:

Astronomy

Oct. 06, 2011 Rise Set
Actual Time 7:16 AM CDT 6:48 PM CDT
Civil Twilight 6:48 AM CDT 7:16 PM CDT
Nautical Twilight 6:16 AM CDT 7:48 PM CDT
Astronomical Twilight 5:44 AM CDT 8:20 PM CDT
Moon 4:05 PM CDT (10/6) 2:01 AM CDT (10/6)
Length of Visible Light 12h 27m
Length of Day
11h 31m
Waxing Gibbous, 75% of the Moon is Illuminated
Oct 6
Waxing Gibbous
Oct 11
Full
Oct 19
Last Quarter
Oct 26
New
Nov 2
First Quarter

Hourly Weather History & Observations

Time (CDT) Temp. Dew Point Humidity Pressure Visibility Wind Dir Wind Speed Gust Speed Precip Events Conditions
12:54 AM 60.1 °F 43.0 °F 53% 30.07 in 10.0 mi SSE 9.2 mph - N/A   Clear
1:54 AM 59.0 °F 43.0 °F 55% 30.08 in 10.0 mi SSE 8.1 mph - N/A   Clear
2:54 AM 59.0 °F 43.0 °F 55% 30.07 in 10.0 mi SSE 6.9 mph - N/A   Clear
3:54 AM 57.0 °F 43.0 °F 59% 30.08 in 10.0 mi SSE 6.9 mph - N/A   Clear
4:54 AM 59.0 °F 44.1 °F 58% 30.09 in 10.0 mi SE 6.9 mph - N/A   Clear
5:54 AM 57.0 °F 44.1 °F 62% 30.09 in 10.0 mi SE 8.1 mph - N/A   Clear
6:54 AM 55.0 °F 44.1 °F 67% 30.10 in 10.0 mi SSE 8.1 mph - N/A   Partly Cloudy
7:54 AM 55.0 °F 45.0 °F 69% 30.11 in 10.0 mi SE 8.1 mph - N/A   Partly Cloudy
8:54 AM 59.0 °F 46.0 °F 62% 30.11 in 10.0 mi SSE 9.2 mph - N/A   Scattered Clouds
9:54 AM 66.9 °F 48.0 °F 51% 30.10 in 10.0 mi SSE 11.5 mph - N/A   Partly Cloudy
10:54 AM 73.0 °F 46.9 °F 39% 30.09 in 10.0 mi SSE 12.7 mph 19.6 mph N/A   Scattered Clouds
11:54 AM 79.0 °F 48.0 °F 34% 30.08 in 10.0 mi South 16.1 mph - N/A   Scattered Clouds
12:54 PM 81.0 °F 45.0 °F 28% 30.06 in 10.0 mi SSE 17.3 mph 25.3 mph N/A   Mostly Cloudy
1:54 PM 80.1 °F 43.0 °F 27% 30.04 in 10.0 mi SSE 21.9 mph 26.5 mph N/A   Overcast
2:54 PM 81.0 °F 41.0 °F 24% 30.02 in 10.0 mi South 17.3 mph 29.9 mph N/A   Overcast
3:54 PM 80.1 °F 42.1 °F 26% 30.02 in 10.0 mi SSE 19.6 mph 26.5 mph N/A   Mostly Cloudy
4:54 PM 80.1 °F 44.1 °F 28% 30.00 in 10.0 mi SSE 18.4 mph 26.5 mph N/A   Mostly Cloudy
5:54 PM 79.0 °F 42.1 °F 27% 30.00 in 10.0 mi SSE 19.6 mph 25.3 mph N/A   Scattered Clouds
6:54 PM 77.0 °F 43.0 °F 30% 29.99 in 10.0 mi SE 12.7 mph - N/A   Scattered Clouds
7:54 PM 75.0 °F 45.0 °F 34% 30.00 in 10.0 mi SE 16.1 mph - N/A   Scattered Clouds
8:54 PM 72.0 °F 45.0 °F 38% 30.01 in 10.0 mi SE 11.5 mph - N/A   Scattered Clouds
9:54 PM 70.0 °F 46.9 °F 44% 30.01 in 10.0 mi SSE 12.7 mph - N/A   Mostly Cloudy
10:54 PM 69.1 °F 48.9 °F 49% 30.02 in 10.0 mi SSE 12.7 mph - N/A   Mostly Cloudy
11:54 PM 68.0 °F 50.0 °F 52% 30.01 in 10.0 mi SSE 13.8 mph - N/A   Scattered Clouds